Location: Ecklingerode
(51.5036°N, 10.3122°E)
Time: 14:37:42
(UTC+00:00)

USA 215 - Pass Details

Date: 29 October 2020
Orbit: 1102 x 1106 km, 123.0° (Epoch: 23 November)

Event Time Altitude Azimuth Distance (km) Brightness Sun altitude
Exits shadow 16:22:47 - 71° (ENE) 3,382 5.1 -4.7°
Reaches altitude 10° 16:23:53 10° 70° (ENE) 2,965 4.8 -4.9°
Maximum altitude 16:30:15 57° 354° (N) 1,284 3.6 -5.8°
Drops below altitude 10° 16:36:37 10° 278° (W) 2,964 6.9 -6.8°
Sets 16:39:08 0° 274° (W) 3,922 7.9 -7.2°
